Timestamp,AirTC,RH,T107,SnowDepth,Wind,Kdown
9/1/2010 0:00,5.45,97.4,9.52,32.66,0.01,0
9/1/2010 0:15,7.51,97.9,9.57,31.93,0,0
9/1/2010 0:30,7.51,97.9,9.56,32.23,0,0
9/1/2010 0:45,7.54,98,9.54,31.72,0.04,0
9/1/2010 1:00,7.52,98,9.53,28.18,0,0
9/1/2010 1:15,7.44,97.9,9.52,32.26,0,0
9/1/2010 1:30,7.37,97.9,9.52,31.07,0,0
9/1/2010 1:45,7.44,98,9.5,31.04,0,0
9/1/2010 2:00,7.42,98.1,9.5,29.94,0,0
9/1/2010 2:15,7.4,98,9.49,31.26,0,0
9/1/2010 2:30,7.38,98,9.48,29.55,0,0
9/1/2010 2:45,7.38,98,9.46,32.69,0,0
9/1/2010 3:00,7.33,98.1,9.46,31.59,0,0
9/1/2010 3:15,7.33,98.1,9.45,33.72,0,0
9/1/2010 3:30,7.28,98.1,9.44,29.78,0,0
9/1/2010 3:45,7.25,98,9.43,31.52,0,0
9/1/2010 4:00,7.26,98.1,9.42,32.22,0,0
9/1/2010 4:15,7.26,98,9.41,31.92,0,0
9/1/2010 4:30,7.23,98,9.4,27.07,0,0
9/1/2010 4:45,7.21,98,9.4,29.61,0,0
9/1/2010 5:00,7.23,98,9.38,31.73,0,0
9/1/2010 5:15,7.28,98.1,9.38,32.52,0,0.15
9/1/2010 5:30,7.26,98,9.37,-2.02,0,0.65
9/1/2010 5:45,7.21,98.1,9.36,31.23,0,1.33
9/1/2010 6:00,7.28,98.1,9.35,32.22,0,3.89
9/1/2010 6:15,7.33,98.1,9.34,28.85,0,6.3
9/1/2010 6:30,7.47,98.1,9.34,31.94,0,13.4
9/1/2010 6:45,7.5,98.1,9.33,31.73,0,12.69
9/1/2010 7:00,7.64,98.1,9.32,32.39,0,21.88
9/1/2010 7:15,7.71,98,9.32,33.18,0,28.68
9/1/2010 7:30,7.67,98.2,9.32,31.78,0,23.04
9/1/2010 7:45,7.71,98.1,9.32,32.06,0,20.92
9/1/2010 8:00,7.76,98.1,9.31,33.16,0,11.49
9/1/2010 8:15,7.71,98.1,9.31,31.96,0,9.8
9/1/2010 8:30,7.71,98.1,9.31,31.56,0,13.21
9/1/2010 8:45,7.88,98,9.31,30.28,0,24.29
9/1/2010 9:00,7.93,98.1,9.31,28.94,0.02,24.96
9/1/2010 9:15,7.9,98,9.31,31.69,0,37.58
9/1/2010 9:30,8.09,98.1,9.31,34.06,0,39.55
9/1/2010 9:45,8.04,97.9,9.31,34.08,0,32.14
9/1/2010 10:00,8.33,98,9.31,-1.86,0,50.63
9/1/2010 10:15,8.28,97.9,9.31,33.59,0.16,56.45
9/1/2010 10:30,8.45,97.8,9.32,7.33,0.07,58.36
9/1/2010 10:45,8.35,97.5,9.32,33.36,0.16,60.04
9/1/2010 11:00,8.38,97.5,9.33,32.54,0.07,62.43
9/1/2010 11:15,8.47,97.1,9.33,32.3,0.06,83.71
9/1/2010 11:30,8.67,97,9.34,32.13,0.01,71.5
9/1/2010 11:45,9.1,97.1,9.36,39.6,0.01,113.58
9/1/2010 12:00,9.03,95.7,9.37,7.21,0.25,95.79
9/1/2010 12:15,9,95.7,9.38,9.76,0.07,76.54
9/1/2010 12:30,9.34,95.6,9.4,33.53,0,135.77
9/1/2010 12:45,9.55,94.6,9.41,50.54,0.12,144.86
9/1/2010 13:00,9.72,94.6,9.43,50.29,0.07,106.78
9/1/2010 13:15,10.01,91.3,9.46,12.01,0.06,128.7
9/1/2010 13:30,10.01,91.4,9.47,8.25,0.03,110.09
9/1/2010 13:45,10.25,91.8,9.49,52.36,0,137.81
9/1/2010 14:00,10.25,86.7,9.52,51.54,0.07,120.44
9/1/2010 14:15,10.44,92.1,9.54,10.32,0.02,98.5
9/1/2010 14:30,10.68,94.4,9.57,-26.06,0.1,116.69
9/1/2010 14:45,10.87,93.9,9.59,9.03,0.02,91.95
9/1/2010 15:00,10.58,92.3,9.63,48.18,0,53.4
9/1/2010 15:15,10.5,93.3,9.65,7.03,0,80.33
9/1/2010 15:30,10.87,91.3,9.67,7.2,0,84.01
9/1/2010 15:45,11.01,93.6,9.69,37.54,0.02,86.01
9/1/2010 16:00,10.62,90.9,9.71,7.5,0,36.75
9/1/2010 16:15,10.76,94.6,9.74,7.54,0,52.12
9/1/2010 16:30,11,94.5,9.75,32.74,0,40.48
9/1/2010 16:45,11.15,95.6,9.77,32.79,0,40.66
9/1/2010 17:00,11.1,95.3,9.79,33.42,0,28.98
9/1/2010 17:15,10.86,95.6,9.8,31.67,0.1,32.7
9/1/2010 17:30,10.91,96.2,9.81,30.33,0.07,27.63
9/1/2010 17:45,10.6,95.5,9.82,48.99,0.06,23.26
9/1/2010 18:00,10.38,95.8,9.83,48.65,0,13.43
9/1/2010 18:15,10.04,95.5,9.84,48.76,0.04,10.15
9/1/2010 18:30,9.59,95.2,9.85,48.7,0.13,3.82
9/1/2010 18:45,9.18,96,9.85,7.45,0.19,0.94
9/1/2010 19:00,8.65,96.1,9.86,0.25,0.28,0
9/1/2010 19:15,8.32,96,9.86,6.47,0.1,0
9/1/2010 19:30,7.98,96,9.86,6.61,0.12,0
9/1/2010 19:45,7.7,96.2,9.86,7.43,0.32,0
9/1/2010 20:00,7.51,96.5,9.85,1.12,0.1,0
9/1/2010 20:15,7.29,96.7,9.83,8.1,0.09,0
9/1/2010 20:30,7.08,96.7,9.81,48.39,0.07,0
9/1/2010 20:45,7.01,96.9,9.81,7.2,0.09,0
9/1/2010 21:00,7.03,97.1,9.78,-29.88,0.2,0
9/1/2010 21:15,7.04,97.1,9.77,6.58,0.25,0
9/1/2010 21:30,6.94,97.1,9.75,7.53,0.08,0
9/1/2010 21:45,6.75,97.1,9.73,8.51,0.16,0
9/1/2010 22:00,6.7,97.1,9.7,50.13,0.11,0
9/1/2010 22:15,6.58,97.1,9.68,8.98,0.11,0
9/1/2010 22:30,6.46,97.2,9.66,8.43,0.02,0
9/1/2010 22:45,6.24,97.2,9.64,2.04,0.01,0
9/1/2010 23:00,6.08,97.3,9.62,33.96,0.03,0
9/1/2010 23:15,5.74,97.2,9.6,32.36,0.04,0
9/1/2010 23:30,5.62,97.2,9.58,4.01,0,0
9/1/2010 23:45,5.5,97.3,9.55,33.25,0.01,0
9/2/2010 0:00,9.52,95.1,9.87,7.52,0.18,0
9/2/2010 0:15,5.36,97.4,9.5,32.29,0,0
9/2/2010 0:30,5.41,97.5,9.47,32.37,0.01,0
9/2/2010 0:45,5.29,97.6,9.44,-0.3,0.01,0
9/2/2010 1:00,5.56,97.6,9.42,2.62,0.04,0
9/2/2010 1:15,5.58,97.6,9.4,33.02,0.02,0
9/2/2010 1:30,5.7,97.7,9.37,1.45,0.06,0
9/2/2010 1:45,5.73,97.8,9.34,32.97,0.01,0
9/2/2010 2:00,5.75,97.7,9.32,32.86,0.02,0
9/2/2010 2:15,5.8,97.7,9.3,33.35,0.15,0
9/2/2010 2:30,5.8,97.8,9.28,32.84,0.08,0
9/2/2010 2:45,5.82,97.8,9.27,31.82,0.05,0
9/2/2010 3:00,5.9,97.9,9.26,32,0.02,0
9/2/2010 3:15,5.85,97.8,9.24,31.71,0.06,0
9/2/2010 3:30,5.8,97.9,9.22,32.54,0.14,0
9/2/2010 3:45,5.8,97.9,9.2,31.43,0.09,0
9/2/2010 4:00,5.73,97.8,9.19,31.86,0.09,0
9/2/2010 4:15,5.73,97.9,9.18,31.86,0.07,0
9/2/2010 4:30,5.75,98,9.17,31.34,0.15,0
9/2/2010 4:45,5.77,97.9,9.15,30.12,0.02,0
9/2/2010 5:00,5.82,97.9,9.15,31.72,0.16,0
9/2/2010 5:15,5.92,97.9,9.13,31.99,0.13,0.14
9/2/2010 5:30,5.97,97.9,9.12,31.06,0.08,0.62
9/2/2010 5:45,6.04,97.9,9.11,30.93,0.01,1.72
9/2/2010 6:00,6.09,98,9.1,31.63,0.02,3.37
9/2/2010 6:15,6.26,98,9.09,31.57,0.05,5.53
9/2/2010 6:30,6.32,98,9.08,32.25,0.09,8.56
9/2/2010 6:45,6.42,98,9.07,32.32,0.06,8.21
9/2/2010 7:00,6.51,98.1,9.06,32.49,0.14,12.04
9/2/2010 7:15,6.66,98,9.06,32.23,0.11,13.15
9/2/2010 7:30,6.8,98.1,9.05,31.98,0.11,21.24
9/2/2010 7:45,7.06,98.1,9.05,32.09,0.11,32.97
9/2/2010 8:00,7.19,98.1,9.05,32.86,0.07,33.24
9/2/2010 8:15,7.47,98.1,9.04,-0.19,0.14,39.47
9/2/2010 8:30,7.45,98.1,9.04,-1.09,0.24,42.72
9/2/2010 8:45,7.52,98,9.04,32.94,0.22,46.34
9/2/2010 9:00,7.5,98,9.03,-0.09,0.16,42.73
9/2/2010 9:15,7.74,97.9,9.04,32.05,0.15,42.71
9/2/2010 9:30,7.86,97.8,9.04,32.82,0.19,39.46
9/2/2010 9:45,8,97.6,9.06,31.66,0.21,78.39
9/2/2010 10:00,8.68,97.3,9.06,32.03,0.25,81.05
9/2/2010 10:15,8.77,97.2,9.08,33.72,0.1,57.61
9/2/2010 10:30,8.77,96.8,9.08,31.9,0.15,46.86
9/2/2010 10:45,8.96,96.8,9.1,32.23,0.07,64.84
9/2/2010 11:00,9.25,96.9,9.11,32.85,0.1,66.44
9/2/2010 11:15,9.54,97,9.13,33.35,0.11,73.49
9/2/2010 11:30,9.66,96.7,9.14,31.89,0.15,62.61
9/2/2010 11:45,10.13,97,9.16,31.42,0.18,78.59
9/2/2010 12:00,10.54,96.2,9.18,50.23,0.27,102.37
9/2/2010 12:15,10.75,96.1,9.2,50.47,0.13,85.27
9/2/2010 12:30,11.28,95.7,9.22,7.85,0.05,107.19
9/2/2010 12:45,11.5,95.7,9.25,52.07,0.24,96.48
9/2/2010 13:00,11.81,94.7,9.27,50.95,0.24,113.6
9/2/2010 13:15,12.12,94,9.31,7.22,0.33,107.06
9/2/2010 13:30,12.57,93,9.34,9.39,0.34,114.74
9/2/2010 13:45,13.18,91.4,9.38,-26.27,0.41,130.3
9/2/2010 14:00,13.65,90.2,9.42,-25.66,0.27,107.2
9/2/2010 14:15,13.69,84.4,9.45,6.19,0.23,54.12
9/2/2010 14:30,13.98,85.3,9.49,34.48,0.23,45.67
9/2/2010 14:45,13.74,89.7,9.53,8.74,0.11,39.14
9/2/2010 15:00,14.03,90.1,9.57,51.69,0.03,43.32
9/2/2010 15:15,14.41,89,9.61,11.97,0.04,37.65
9/2/2010 15:30,14.75,87.2,9.65,36.99,0.05,78.39
9/2/2010 15:45,15.03,82,9.68,8.96,0.64,82.42
9/2/2010 16:00,14.91,82.1,9.71,8.08,0.76,66.03
9/2/2010 16:15,14.62,81.7,9.73,10.55,0.83,50.82
9/2/2010 16:30,14.13,84.6,9.76,6.43,0.88,26.52
9/2/2010 16:45,13.77,85,9.79,11.08,0.87,23.24
9/2/2010 17:00,13.19,87.3,9.81,10.38,0.89,15.25
9/2/2010 17:15,12.76,87.8,9.83,10.14,0.68,10.42
9/2/2010 17:30,12.58,89.2,9.84,-25.79,0.47,6.58
9/2/2010 17:45,12.39,89.4,9.86,34.31,0.53,5.66
9/2/2010 18:00,12.29,89.6,9.87,7.66,0.55,4.83
9/2/2010 18:15,12.15,89.7,9.88,-73.7,0.55,3.65
9/2/2010 18:30,12.05,89.7,9.89,-3.28,0.55,3.33
9/2/2010 18:45,11.91,89.8,9.9,51.94,0.58,2.61
9/2/2010 19:00,11.86,89.6,9.91,51.24,0.56,1.23
9/2/2010 19:15,11.62,91.6,9.91,49.48,0.36,0.26
9/2/2010 19:30,11.57,91.1,9.91,50.31,0.58,0.47
9/2/2010 19:45,11.53,91.7,9.91,50.94,0.59,0.42
9/2/2010 20:00,11.56,92.1,9.91,51.23,0.62,0.43
9/2/2010 20:15,11.58,91.9,9.91,13.04,0.83,0.42
9/2/2010 20:30,11.68,91.2,9.91,8.82,0.45,0.41
9/2/2010 20:45,11.61,91,9.9,50.91,0.48,0.01
9/2/2010 21:00,11.44,91.6,9.9,50.45,0.5,0
9/2/2010 21:15,11.34,91.6,9.9,51,0.46,0
9/2/2010 21:30,11.25,92.3,9.91,50.92,0.35,0
9/2/2010 21:45,11.1,92.7,9.9,50.87,0.33,0
9/2/2010 22:00,10.86,93.5,9.9,7.91,0.43,0
9/2/2010 22:15,10.76,93.9,9.9,51.08,0.45,0
9/2/2010 22:30,10.59,93.8,9.9,50.11,0.34,0
9/2/2010 22:45,10.28,93.9,9.89,10.18,0.44,0
9/2/2010 23:00,10.14,94.7,9.89,50.15,0.34,0
9/2/2010 23:15,9.83,94.1,9.89,7.5,0.26,0
9/2/2010 23:30,9.71,95.3,9.88,8.56,0.26,0
9/2/2010 23:45,9.62,95.4,9.87,7.79,0.3,0
9/3/2010 0:00,9.18,97.8,10.37,2.37,0.06,0
9/3/2010 0:15,9.47,94.8,9.86,48.02,0.21,0
9/3/2010 0:30,9.4,94.7,9.85,7.47,0.26,0
9/3/2010 0:45,9.28,94.8,9.85,7.51,0.4,0
9/3/2010 1:00,8.99,94.2,9.84,9.15,0.12,0
9/3/2010 1:15,8.97,95,9.83,49.81,0.17,0
9/3/2010 1:30,9.09,95.6,9.82,49.57,0.11,0
9/3/2010 1:45,9.11,95.8,9.81,50.27,0.09,0
9/3/2010 2:00,9.14,95.9,9.8,50.27,0.09,0
9/3/2010 2:15,9.04,96,9.79,49.69,0.1,0
9/3/2010 2:30,9.09,96.1,9.78,49.88,0.23,0
9/3/2010 2:45,9.19,96.3,9.76,9.18,0.12,0
9/3/2010 3:00,9.19,96.3,9.76,30.63,0.05,0
9/3/2010 3:15,9.12,96,9.75,29.23,0.09,0
9/3/2010 3:30,9.1,96.2,9.74,-1.87,0.31,0
9/3/2010 3:45,9.14,96.3,9.73,28.51,0.08,0
9/3/2010 4:00,8.99,96.2,9.72,27.65,0.01,0
9/3/2010 4:15,8.95,96,9.72,-2.32,0.02,0
9/3/2010 4:30,8.9,95.9,9.71,-1.99,0.1,0
9/3/2010 4:45,8.93,96.1,9.7,-1.29,0.03,0
9/3/2010 5:00,8.76,96,9.69,-0.92,0.1,0
9/3/2010 5:15,8.52,95.6,9.68,-0.62,0.34,0
9/3/2010 5:30,8.57,96,9.68,-0.64,0.16,0.38
9/3/2010 5:45,8.57,96,9.67,-1.04,0.04,1.75
9/3/2010 6:00,8.62,96.2,9.66,40.17,0.22,6.41
9/3/2010 6:15,8.86,96.4,9.65,-0.96,0.12,11.33
9/3/2010 6:30,9.39,96.7,9.64,40.02,0.11,18.75
9/3/2010 6:45,9.75,96.5,9.64,40.5,0,33.67
9/3/2010 7:00,10.02,96.2,9.63,40.62,0,39.39
9/3/2010 7:15,10.23,96.1,9.62,-0.6,0.06,34.15
9/3/2010 7:30,10.27,95.9,9.62,-0.42,0.05,31.77
9/3/2010 7:45,10.22,95.8,9.63,39.84,0.04,32.44
9/3/2010 8:00,10.39,95.7,9.64,-100.1,0.02,43.2
9/3/2010 8:15,11.09,93.2,9.63,-2.18,0.09,70.15
9/3/2010 8:30,11.31,90.1,9.64,31.11,0.1,44.57
9/3/2010 8:45,11.38,88.5,9.65,32.2,0.06,50.33
9/3/2010 9:00,11.93,88.6,9.66,33.75,0.09,54.63
9/3/2010 9:15,12.41,86.4,9.67,32.05,0.17,52.69
9/3/2010 9:30,12.72,88.7,9.68,-0.79,0.15,55.83
9/3/2010 9:45,12.86,85.1,9.7,32.82,0.02,45.16
9/3/2010 10:00,13.22,86,9.72,7.81,0.03,47.27
9/3/2010 10:15,13.89,84.3,9.72,6.53,0.11,58.88
9/3/2010 10:30,14.44,79.1,9.73,6.52,0.22,41.4
9/3/2010 10:45,15.14,80.7,9.75,6.66,0.13,43.29
9/3/2010 11:00,16.1,75.2,9.77,48.68,0.1,43.2
9/3/2010 11:15,16.78,71.9,9.79,49.81,0.21,42.92
9/3/2010 11:30,17.3,70.1,9.81,49.34,0.3,44.69
9/3/2010 11:45,17.51,73.8,9.85,48.86,0.24,62.45
9/3/2010 12:00,17.6,73.6,9.87,51.2,0.17,77.58
9/3/2010 12:15,18.05,73.6,9.9,52.82,0.13,91.14
9/3/2010 12:30,18.6,67.9,9.95,48.73,0.53,88.81
9/3/2010 12:45,18.82,62.11,10.01,50.21,0.34,85.81
9/3/2010 13:00,18.92,68.24,10.06,51.01,0.02,91.88
9/3/2010 13:15,19,74.2,10.12,7.85,0.07,109.93
9/3/2010 13:30,19.58,65.67,10.16,49.77,0.19,85.85
9/3/2010 13:45,19.53,67.72,10.22,5.59,0.33,75.69
9/3/2010 14:00,19.35,64.04,10.27,7,0.1,69.86
9/3/2010 14:15,19.27,75.6,10.31,49.55,0.37,61.57
9/3/2010 14:30,19.71,76.1,10.38,51.08,0.33,87.62
9/3/2010 14:45,20.48,70.4,10.42,35.29,0.62,73.62
9/3/2010 15:00,19.95,61.28,10.46,52.45,0.4,56.39
9/3/2010 15:15,19.46,58.88,10.51,11.92,0.78,42.51
9/3/2010 15:30,19.34,60.13,10.55,50.98,0.46,66.87
9/3/2010 15:45,19.03,66.03,10.6,51.8,0.44,77.92
9/3/2010 16:00,19.34,62.86,10.64,51.29,0.41,41.13
9/3/2010 16:15,18.19,59.36,10.67,12.4,0.97,14.14
9/3/2010 16:30,15.34,68.18,10.71,50.56,1.14,4.46
9/3/2010 16:45,12.74,77.5,10.73,34.08,1.24,0.63
9/3/2010 17:00,11.62,85.1,10.75,9.15,1.09,0.5
9/3/2010 17:15,10.57,92.6,10.77,5.58,0.83,1.01
9/3/2010 17:30,10.2,94.6,10.79,-6.9,0.54,27.09
9/3/2010 17:45,9.92,95.2,10.79,7.98,0.59,6.27
9/3/2010 18:00,9.76,95.9,10.78,28.39,0.32,1.22
9/3/2010 18:15,9.7,96.3,10.77,32.08,0.35,8.05
9/3/2010 18:30,9.55,96.4,10.77,-2.77,0.37,4.48
9/3/2010 18:45,9.7,96.8,10.75,32.48,0.31,6.24
9/3/2010 19:00,9.65,96.9,10.73,8.89,0.13,0.46
9/3/2010 19:15,9.61,96.9,10.72,33.53,0.1,0
9/3/2010 19:30,9.57,97.1,10.69,49.62,0,0
9/3/2010 19:45,9.57,97.3,10.67,49.32,0,0
9/3/2010 20:00,9.64,97.2,10.65,0.45,0.04,0
9/3/2010 20:15,9.62,97.3,10.63,31.9,0.04,0
9/3/2010 20:30,9.62,97.4,10.61,32.11,0.03,0
9/3/2010 20:45,9.57,97.5,10.59,32.43,0.04,0
9/3/2010 21:00,9.47,97.5,10.57,6.52,0,0
9/3/2010 21:15,9.33,97.4,10.55,33.53,0,0
9/3/2010 21:30,9.31,97.4,10.53,8.72,0,0
9/3/2010 21:45,9.28,97.5,10.51,7.11,0,0
9/3/2010 22:00,9.18,97.4,10.49,8.47,0.05,0
9/3/2010 22:15,9.18,97.5,10.47,8.57,0,0
9/3/2010 22:30,9.16,97.5,10.46,7.15,0,0
9/3/2010 22:45,9.18,97.5,10.45,5.52,0,0
9/3/2010 23:00,9.16,97.6,10.43,7.66,0,0
9/3/2010 23:15,9.18,97.6,10.41,-3.43,0,0
9/3/2010 23:30,9.18,97.7,10.4,32.77,0.01,0
9/3/2010 23:45,9.16,97.6,10.38,-1.79,0.06,0
9/4/2010 0:00,6,97.9,9.44,27.71,0.03,0
9/4/2010 0:15,9.14,97.7,10.35,8.69,0.04,0
9/4/2010 0:30,9.14,97.8,10.34,6.15,0,0
9/4/2010 0:45,9.09,97.7,10.32,49.47,0,0
9/4/2010 1:00,8.94,97.7,10.32,49.31,0.01,0
9/4/2010 1:15,8.66,97.6,10.3,49.51,0,0
9/4/2010 1:30,8.37,97.8,10.28,7.16,0.02,0
9/4/2010 1:45,8.28,97.7,10.28,7.2,0.03,0
9/4/2010 2:00,8.3,97.7,10.25,32.36,0.04,0
9/4/2010 2:15,8.38,97.8,10.24,31.22,0.02,0.02
9/4/2010 2:30,8.5,97.8,10.22,29.25,0,0.05
9/4/2010 2:45,8.57,97.8,10.21,29.32,0.06,0
9/4/2010 3:00,8.16,97.7,10.19,32.62,0.22,0
9/4/2010 3:15,8.16,97.7,10.18,40.23,0.05,0
9/4/2010 3:30,8.11,97.8,10.16,7.87,0.01,0
9/4/2010 3:45,8.09,97.7,10.15,5.45,0,0
9/4/2010 4:00,7.85,97.7,10.14,48.45,0.22,0
9/4/2010 4:15,7.65,97.7,10.12,48.61,0,0
9/4/2010 4:30,7.32,97.7,10.1,9.71,0.03,0
9/4/2010 4:45,6.96,97.6,10.08,9.44,0.07,0
9/4/2010 5:00,6.62,97.5,10.07,9.68,0.08,0
9/4/2010 5:15,6.72,97.6,10.05,9.94,0,0.06
9/4/2010 5:30,6.87,97.7,10.03,9.28,0.06,0.57
9/4/2010 5:45,6.94,97.8,10.01,10.26,0.17,1.72
9/4/2010 6:00,6.94,97.8,9.99,8.44,0.34,3.8
9/4/2010 6:15,6.92,97.8,9.97,9.86,0.08,9.65
9/4/2010 6:30,6.92,97.9,9.96,9.96,0.16,11.2
9/4/2010 6:45,6.92,97.8,9.94,7.94,0.08,16.1
9/4/2010 7:00,7.04,97.8,9.92,6.78,0.19,21
9/4/2010 7:15,7.06,97.9,9.9,-2.04,0.01,21.85
9/4/2010 7:30,7.35,97.9,9.88,29.96,0.11,37.86
9/4/2010 7:45,7.35,97.7,9.86,49.62,0.44,41.66
9/4/2010 8:00,7.57,97.8,9.84,49.45,0.15,39.14
9/4/2010 8:15,7.84,97.7,9.84,7.47,0.07,48.46
9/4/2010 8:30,7.91,97.8,9.82,8.36,0.27,50.07
9/4/2010 8:45,7.67,96.9,9.82,31.78,0.36,54.07
9/4/2010 9:00,7.9,97.1,9.81,32.91,0.31,54.58
9/4/2010 9:15,7.81,96.8,9.8,49.78,0.31,69.62
9/4/2010 9:30,8.19,96.6,9.79,51.08,0.11,81.79
9/4/2010 9:45,8.38,96.3,9.8,48.78,0.15,77.92
9/4/2010 10:00,8.16,94.7,9.8,30.59,0.23,29.96
9/4/2010 10:15,7.65,95.1,9.8,-11.51,0.15,43.35
9/4/2010 10:30,7.68,95.5,9.8,30.35,0.18,88.25
9/4/2010 10:45,7.75,96.1,9.8,30.93,0.37,44.2
9/4/2010 11:00,7.53,95.1,9.8,31.42,0.64,48.41
9/4/2010 11:15,7.92,96.6,9.8,30.27,0.35,105.39
9/4/2010 11:30,8.09,93.1,9.8,7.27,0.53,137.22
9/4/2010 11:45,8.98,95.7,9.81,9.16,0.53,119.8
9/4/2010 12:00,9.32,92.6,9.8,9.84,0.28,121.45
9/4/2010 12:15,9.27,89.8,9.82,8.13,0.12,102.98
9/4/2010 12:30,8.84,90.6,9.83,48.64,0.12,68.27
9/4/2010 12:45,7.61,90.3,9.86,29.16,0.48,15.22
9/4/2010 13:00,7.65,95,9.88,-3.3,0.39,99.96
9/4/2010 13:15,8.67,95.5,9.9,48.59,0.38,96.24
9/4/2010 13:30,8.84,95.6,9.91,49.14,0.54,96.81
9/4/2010 13:45,9.05,94.6,9.91,9.84,0.26,83.66
9/4/2010 14:00,8.76,94.6,9.92,48.66,0.09,34.16
9/4/2010 14:15,8.45,95.3,9.93,7.74,0.05,14.93
9/4/2010 14:30,8.14,95.9,9.94,31.41,0.1,24.29
9/4/2010 14:45,8.72,96.8,9.94,-0.29,0.55,107.69
9/4/2010 15:00,8.5,95.3,9.94,7.72,0.21,64.16
9/4/2010 15:15,8.26,96.2,9.94,8.53,0.25,31.66
9/4/2010 15:30,8.14,96.2,9.94,8.98,0.11,34.7
9/4/2010 15:45,8.52,96.6,9.93,48.74,0.08,52.81
9/4/2010 16:00,8.31,96.4,9.94,31.55,0.43,19.16
9/4/2010 16:15,8.55,96.8,9.93,31.16,0.24,51.2
9/4/2010 16:30,8.57,96.7,9.93,6.78,0.09,48.35
9/4/2010 16:45,8.19,96.1,9.92,7.44,0.06,11.16
9/4/2010 17:00,8.14,96.3,9.92,24.81,0,10.9
9/4/2010 17:15,8.02,96.8,9.92,29.93,0.16,4.74
9/4/2010 17:30,7.61,96.5,9.92,31.39,0.31,2.12
9/4/2010 17:45,6.98,96.1,9.91,29.59,0,1.34
9/4/2010 18:00,6.76,96.6,9.9,30.37,0,10.5
9/4/2010 18:15,6.89,96.9,9.88,2.18,0,23.35
9/4/2010 18:30,6.87,97,9.86,-0.34,0,4.97
9/4/2010 18:45,6.75,97,9.85,1.63,0,0.57
9/4/2010 19:00,6.65,97.1,9.83,9.46,0,0.01
9/4/2010 19:15,6.61,97.2,9.8,8.27,0.2,0
9/4/2010 19:30,6.56,97.3,9.79,8.69,0.11,0
9/4/2010 19:45,6.41,97.4,9.78,40.51,0.08,0
9/4/2010 20:00,6.37,97.5,9.76,30.21,0.08,0
9/4/2010 20:15,6.24,97.4,9.74,34.4,0,0
9/4/2010 20:30,6.08,97.4,9.72,-81.4,0,0
9/4/2010 20:45,6.22,97.5,9.7,28.75,0,0
9/4/2010 21:00,6.12,97.6,9.68,30.91,0,0
9/4/2010 21:15,6.12,97.6,9.66,6.44,0,0
9/4/2010 21:30,6.15,97.7,9.64,5.72,0.1,0
9/4/2010 21:45,6.17,97.7,9.62,29.07,0.06,0.01
9/4/2010 22:00,6.17,97.7,9.6,29.78,0.06,0.06
9/4/2010 22:15,6,97.7,9.58,30.95,0.12,0
9/4/2010 22:30,5.98,97.7,9.56,28.43,0,0
9/4/2010 22:45,6,97.8,9.54,32.16,0.02,0
9/4/2010 23:00,6.05,97.8,9.52,-0.51,0.02,0
9/4/2010 23:15,6.03,97.9,9.5,40.75,0.12,0
9/4/2010 23:30,6.03,97.9,9.48,29.52,0.06,0
9/4/2010 23:45,5.96,97.8,9.46,27.33,0.01,0
9/5/2010 0:00,6.61,97.9,9.2,8.27,0,0
9/5/2010 0:15,5.93,97.8,9.42,-127.2,0.09,0
9/5/2010 0:30,5.93,97.9,9.4,1.05,0.03,0
9/5/2010 0:45,5.88,97.9,9.39,29.58,0,0
9/5/2010 1:00,5.94,97.9,9.38,29.05,0.01,0
9/5/2010 1:15,5.92,97.9,9.36,-7.13,0.12,0
9/5/2010 1:30,5.94,97.9,9.34,31.07,0,0
9/5/2010 1:45,5.96,98,9.32,-0.07,0,0
9/5/2010 2:00,5.94,98,9.31,-7.03,0.07,0
9/5/2010 2:15,6.01,97.9,9.29,-1.1,0.16,0
9/5/2010 2:30,5.94,97.9,9.28,-1.98,0,0
9/5/2010 2:45,5.94,97.9,9.26,-7.03,0,0
9/5/2010 3:00,5.94,98.1,9.25,3.17,0.01,0
9/5/2010 3:15,5.96,98,9.24,28.84,0,0
9/5/2010 3:30,5.94,98,9.23,-0.16,0,0
9/5/2010 3:45,5.96,98,9.22,-0.68,0.05,0
9/5/2010 4:00,5.96,98,9.2,-1.38,0,0
9/5/2010 4:15,5.94,98.1,9.18,4.69,0,0
9/5/2010 4:30,5.94,98,9.18,29.46,0.01,0
9/5/2010 4:45,5.96,98,9.17,30.66,0.05,0
9/5/2010 5:00,5.96,98,9.16,29.45,0,0
9/5/2010 5:15,5.91,98,9.14,-0.35,0,0
9/5/2010 5:30,5.93,98,9.14,-7.94,0,0.19
9/5/2010 5:45,5.91,98.2,9.13,29.46,0,0.41
9/5/2010 6:00,5.94,98,9.11,28.24,0,1.71
9/5/2010 6:15,5.96,98.2,9.11,29.85,0,3.79
9/5/2010 6:30,5.99,98.1,9.09,32.57,0,9.09
9/5/2010 6:45,6.01,98.1,9.07,26.6,0,9.42
9/5/2010 7:00,6.11,98.2,9.05,-6.9,0,18.55
9/5/2010 7:15,6.13,98,9.05,-0.04,0,11.48
9/5/2010 7:30,6.11,98.1,9.04,1.39,0,16.01
9/5/2010 7:45,6.27,98.1,9.03,0.21,0,25.25
9/5/2010 8:00,6.46,98.1,9.03,40.4,0,39.98
9/5/2010 8:15,6.53,98.2,9.01,29.34,0,48.95
9/5/2010 8:30,6.46,98,9.01,29.98,0.1,43.38
9/5/2010 8:45,6.68,98.1,9.01,31.62,0,53.36
9/5/2010 9:00,6.99,98.1,9.01,33.33,0.24,97.26
9/5/2010 9:15,6.9,98,9.01,7.75,0.09,65.41
9/5/2010 9:30,6.97,97.9,9.01,8.53,0.03,45.25
9/5/2010 9:45,7.45,98,9,8.34,0.08,87.31
9/5/2010 10:00,7.52,97.7,9.01,7.09,0.02,68.47
9/5/2010 10:15,7.14,97.6,9.02,6.94,0.01,27.34
9/5/2010 10:30,7.23,97.6,9.03,-7.28,0,48.52
9/5/2010 10:45,7.28,97.5,9.04,26.44,0,57.33
9/5/2010 11:00,7.79,97.1,9.05,41.16,0,115.06
9/5/2010 11:15,8.17,96.5,9.05,9.07,0,133.06
9/5/2010 11:30,8.05,95.1,9.06,48.69,0,93.32
9/5/2010 11:45,8.19,95.4,9.07,48.95,0,78.82
9/5/2010 12:00,8.41,94.8,9.08,48.77,0,76.01
9/5/2010 12:15,8.43,94.6,9.1,49.07,0,73.78
9/5/2010 12:30,8.62,93.6,9.11,48.5,0.12,112.41
9/5/2010 12:45,8.55,95.1,9.13,8.62,0,45.23
9/5/2010 13:00,8.67,95.4,9.14,48.18,0,59.34
9/5/2010 13:15,9.03,95.6,9.16,47.96,0.02,112.38
9/5/2010 13:30,9.05,93.6,9.18,47.96,0.01,87.94
9/5/2010 13:45,8.91,94.9,9.19,5.32,0,51.57
9/5/2010 14:00,8.71,95.4,9.22,31.81,0.02,30.79
9/5/2010 14:15,8.66,96.1,9.23,7.05,0,49.45
9/5/2010 14:30,9.15,96.3,9.24,-8.6,0.07,111.33
9/5/2010 14:45,9.34,95.6,9.26,31.69,0.01,92.3
9/5/2010 15:00,9.38,95.5,9.28,48.56,0.1,71.74
9/5/2010 15:15,9.36,95.5,9.29,48.77,0,55.52
9/5/2010 15:30,9.23,95.9,9.3,49.12,0.03,52.55
9/5/2010 15:45,9.26,96.1,9.32,48.91,0.02,49.22
9/5/2010 16:00,8.97,95.7,9.34,49.51,0,37.18
9/5/2010 16:15,9.28,96.6,9.36,49.61,0,50.85
9/5/2010 16:30,9.04,96.4,9.36,49.38,0,23.24
9/5/2010 16:45,9.09,96.4,9.38,49.88,0,35.53
9/5/2010 17:00,9.28,96.8,9.39,49.71,0,42.48
9/5/2010 17:15,9.04,96.5,9.4,9.64,0,13.73
9/5/2010 17:30,8.8,96.4,9.4,49.46,0,19.15
9/5/2010 17:45,8.76,96.7,9.41,49.68,0,14.38
9/5/2010 18:00,8.54,96.4,9.41,49.54,0,11.25
9/5/2010 18:15,8.35,96.5,9.42,49.5,0,5.96
9/5/2010 18:30,8.14,96.5,9.42,49.37,0,2.44
9/5/2010 18:45,7.8,96.4,9.42,9.11,0,0.37
9/5/2010 19:00,7.61,96.5,9.42,9.19,0,0
9/5/2010 19:15,7.56,96.7,9.41,9.92,0,0
9/5/2010 19:30,7.51,96.9,9.42,8.62,0.08,0
9/5/2010 19:45,7.36,96.8,9.41,8.37,0,0
9/5/2010 20:00,7.22,96.8,9.41,48.55,0,0
9/5/2010 20:15,7.11,97,9.4,48.18,0,0
9/5/2010 20:30,7.08,97.1,9.38,47.88,0,0
9/5/2010 20:45,7.11,97.2,9.37,8.27,0,0
9/5/2010 21:00,7.11,97.4,9.36,8.17,0,0
9/5/2010 21:15,7.09,97.5,9.35,7.16,0,0
9/5/2010 21:30,6.94,97.5,9.34,9.04,0.03,0
9/5/2010 21:45,6.78,97.6,9.32,8.6,0.08,0
9/5/2010 22:00,6.61,97.5,9.31,7.76,0,0
9/5/2010 22:15,6.56,97.6,9.3,8.18,0.05,0
9/5/2010 22:30,6.65,97.8,9.28,8.45,0,0
9/5/2010 22:45,6.65,97.6,9.27,8.55,0,0
9/5/2010 23:00,6.7,97.7,9.26,8.33,0,0
9/5/2010 23:15,6.75,97.8,9.24,48.9,0,0
9/5/2010 23:30,6.68,97.8,9.23,48.93,0,0
9/5/2010 23:45,6.63,97.8,9.22,8.56,0,0
9/6/2010 0:00,7.43,96.9,9.43,8.85,0.11,0
9/6/2010 0:15,6.49,97.7,9.2,8.52,0.03,0
9/6/2010 0:30,6.41,97.8,9.18,8.55,0.18,0
9/6/2010 0:45,6.41,97.8,9.17,8.55,0.03,0
9/6/2010 1:00,6.27,97.8,9.16,48.76,0.08,0
9/6/2010 1:15,6.27,97.9,9.15,48.86,0,0
9/6/2010 1:30,6.32,97.9,9.13,48.74,0,0
9/6/2010 1:45,6.44,97.9,9.13,48.6,0.08,0
9/6/2010 2:00,6.49,98,9.11,48.69,0.05,0
9/6/2010 2:15,6.46,97.9,9.1,48.69,0,0
9/6/2010 2:30,6.44,98,9.09,48.6,0,0
9/6/2010 2:45,6.34,98,9.07,48.43,0.02,0
9/6/2010 3:00,6.32,97.9,9.07,48.34,0.06,0
9/6/2010 3:15,6.39,98,9.05,48.72,0.04,0
9/6/2010 3:30,6.51,97.9,9.05,7.8,0,0
9/6/2010 3:45,6.58,98,9.03,-0.83,0.02,0
9/6/2010 4:00,6.61,98.1,9.03,-0.24,0.04,0
9/6/2010 4:15,6.65,98,9.02,0.05,0,0
9/6/2010 4:30,6.61,98,9.01,-37.78,0.01,0
9/6/2010 4:45,6.61,98.2,9,29.22,0,0
9/6/2010 5:00,6.56,98,8.99,-1.73,0,0
9/6/2010 5:15,6.53,98,8.99,30.25,0,0.05
9/6/2010 5:30,6.53,97.9,8.97,-1.32,0,0.82
9/6/2010 5:45,6.51,98,8.97,-47.14,0,1.61
9/6/2010 6:00,6.53,98,8.97,0.81,0,3.25
9/6/2010 6:15,6.58,98.1,8.95,33.47,0,4.57
9/6/2010 6:30,6.56,98.1,8.95,7.58,0,6.82
9/6/2010 6:45,6.61,98.1,8.94,49.25,0,9.69
9/6/2010 7:00,6.63,98.1,8.94,49.04,0,15.04
9/6/2010 7:15,6.85,98.1,8.93,49.18,0,19.28
9/6/2010 7:30,7.14,98.2,8.93,49.08,0,52.44
9/6/2010 7:45,7.38,98.1,8.92,48.9,0,68.31
9/6/2010 8:00,7.55,98.1,8.92,49.15,0.04,73.42
9/6/2010 8:15,7.52,98.1,8.92,9.02,0.11,80.51
9/6/2010 8:30,7.57,97.8,8.91,8.59,0.01,62.05
9/6/2010 8:45,7.72,97.6,8.93,8.44,0,57.46
9/6/2010 9:00,7.88,97.3,8.93,49.25,0.13,59.65
9/6/2010 9:15,8.43,97.6,8.94,8.05,0.21,81.22
9/6/2010 9:30,8.6,96.6,8.95,8.39,0.28,93.35
9/6/2010 9:45,8.77,96.4,8.96,40.63,0.16,89.84
9/6/2010 10:00,9.05,96.1,8.97,-34.48,0.46,84.18
9/6/2010 10:15,9.46,96,8.98,9.17,0.49,108.53
9/6/2010 10:30,9.65,93.7,9,33.11,0.26,110.93
9/6/2010 10:45,9.79,93.8,9.02,33.88,0.08,58.05
9/6/2010 11:00,10.34,91.8,9.04,33.07,0.2,92.89
9/6/2010 11:15,10.8,89.3,9.06,33.12,0.2,73.39
9/6/2010 11:30,11.26,87,9.09,7.76,0.1,74.72
9/6/2010 11:45,11.31,80.4,9.12,-1.55,0.22,61.01
9/6/2010 12:00,11.72,80.2,9.14,39.54,0.15,60.9
9/6/2010 12:15,11.98,74.5,9.18,34.34,0.44,81.62
9/6/2010 12:30,12.43,76,9.22,34.5,0.12,121.9
9/6/2010 12:45,12.98,78,9.26,6.27,0.05,114.44
9/6/2010 13:00,13.01,78.5,9.31,33.69,0.28,114.98
9/6/2010 13:15,12.78,78.5,9.35,33.25,0.27,90.69
9/6/2010 13:30,13.02,71.9,9.38,35.22,0.26,110.83
9/6/2010 13:45,13.79,63.24,9.42,8.92,0.39,105.6
9/6/2010 14:00,13.31,73.9,9.45,33.79,0.23,72.63
9/6/2010 14:15,13.06,68.57,9.49,33.56,0.16,61.46
9/6/2010 14:30,13.18,69.04,9.53,34.24,0.23,56.28